SAUDISAT 1C (SO-50)

Last updated on Sat Apr 13 2024 01:02:57 GMT+0100 (British Summer Time)

1 27607U 02058C 24103.26642290 .00001636 00000+0 24030-3 0 9995 2 27607 64.5542 64.1134 0032439 143.8005 216.5304 14.78594631146573
UTC large
Height (km)
Speed (km/s)
/
Latitude / Longitude
Inclination (degrees)
Orbital Period (minutes)
Azimuth
Elevation
Range (km)
Doppler Factor

Next 0 passes for location: London (51.5072 / 0.1276)

Sorry there are no passes over London.